Location: Marstown
(39.5056°N, 77.0820°W)
Time: 14:27:09
(UTC-05:00)

N. Korean satellite - Visible Passes

Search period start: 19 November 2018 00:00
Search period end: 29 November 2018 00:00
Orbit: 457 x 511 km, 97.2° (Epoch: 18 November)

Date Brightness Start Highest point End Pass type
(mag) Time Alt. Az. Time Alt. Az. Time Alt. Az.
19 Nov 7.0 17:17:28 10° SE 17:20:52 40° ENE 17:24:14 10° N visible
19 Nov 10.2 18:53:33 10° WSW 18:54:29 11° W 18:55:26 10° WNW visible
20 Nov 7.1 06:18:15 10° NNE 06:21:39 61° E 06:25:03 10° S visible
20 Nov 9.3 18:26:59 10° SSW 18:29:50 22° W 18:32:39 10° NW visible
21 Nov 8.9 05:54:06 10° NE 05:57:05 27° E 06:00:04 10° SSE visible
21 Nov 7.7 18:01:47 10° S 18:05:14 45° W 18:08:40 10° NNW visible
22 Nov 9.9 05:30:41 10° ENE 05:32:26 13° E 05:34:11 10° ESE visible
22 Nov 6.4 17:37:09 10° SSE 17:40:44 79° ENE 17:44:15 10° N visible
23 Nov 7.1 17:13:01 10° SE 17:16:17 35° ENE 17:19:31 10° N visible
23 Nov 10.0 18:48:23 10° WSW 18:49:51 12° W 18:51:19 10° WNW visible
24 Nov 7.4 06:13:38 10° NNE 06:17:01 52° E 06:20:24 10° S visible
24 Nov 9.0 18:22:14 10° SSW 18:25:11 24° W 18:28:07 10° NW visible
25 Nov 9.1 05:49:33 10° NE 05:52:26 24° E 05:55:17 10° SSE visible
25 Nov 7.4 17:57:08 10° S 18:00:36 52° W 18:04:02 10° NNW visible
26 Nov 10.0 05:26:25 10° ENE 05:27:45 12° E 05:29:06 10° ESE visible
26 Nov 6.4 17:32:35 10° SSE 17:36:05 68° ENE 17:39:34 10° N visible
27 Nov 6.4 06:33:24 10° N 06:36:52 77° WNW 06:40:20 10° SSW visible
27 Nov 9.9 18:43:20 10° SW 18:45:10 14° W 18:46:59 10° WNW visible
28 Nov 7.7 06:08:59 10° NNE 06:12:19 45° E 06:15:41 10° S visible
28 Nov 8.8 18:17:27 10° SSW 18:20:30 27° W 18:23:32 10° NW visible
